This is the latest recevied weather packets stored in our database for station/object KB9HUO. If no packets are shown the sender has not sent any weather packets the latest 10 day(s).
| Time | Temp. | Humidity | Pressure | Rain* | Wind** | Luminosity | Snow |
|---|---|---|---|---|---|---|---|
| 1787868825 | 27.22° C | 59% | 1016 hPa | 0 mm | - | 31 W/m² | - |
| 1787868518 | 27.22° C | 63% | 1015.9 hPa | 0 mm | - | 32 W/m² | - |
| 1787868217 | 27.78° C | 60% | 1015.9 hPa | 0 mm | - | 32 W/m² | - |
| 1787867913 | 27.78° C | 61% | 1016 hPa | 0 mm | - | 32 W/m² | - |
| 1787867608 | 27.78° C | 61% | 1015.9 hPa | 0 mm | - | 33 W/m² | - |
| 1787867308 | 27.78° C | 60% | 1016 hPa | 0 mm | - | 33 W/m² | - |
| 1787867006 | 27.78° C | 64% | 1015.8 hPa | 0 mm | - | 34 W/m² | - |
| 1787866699 | 27.78° C | 61% | 1016 hPa | 0 mm | - | 35 W/m² | - |
| 1787866398 | 27.78° C | 61% | 1016.1 hPa | 0 mm | - | 36 W/m² | - |
| 1787866093 | 28.33° C | 65% | 1015.8 hPa | 0 mm | - | 36 W/m² | - |
| 1787865788 | 28.33° C | 63% | 1016 hPa | 0 mm | - | 44 W/m² | - |
| 1787865483 | 28.33° C | 63% | 1016.1 hPa | 0 mm | - | 40 W/m² | - |
| 1787865177 | 28.33° C | 59% | 1016 hPa | 0 mm | - | 55 W/m² | - |
| 1787864874 | 27.78° C | 61% | 1016 hPa | 0 mm | - | 55 W/m² | - |
| 1787864574 | 28.33° C | 62% | 1016 hPa | 0 mm | - | 48 W/m² | - |
| 1787864269 | 27.78° C | 61% | 1015.8 hPa | 0 mm | - | 69 W/m² | - |
| 1787863963 | 27.78° C | 60% | 1016.1 hPa | 0 mm | - | 60 W/m² | - |
| 1787863662 | 28.33° C | 60% | 1016 hPa | 0 mm | - | 48 W/m² | - |
| 1787863361 | 28.89° C | 57% | 1016.1 hPa | 0 mm | - | 46 W/m² | - |
| 1787863058 | 28.89° C | 58% | 1016.1 hPa | 0 mm | - | 58 W/m² | - |
| 1787862758 | 28.89° C | 58% | 1016.2 hPa | 0 mm | - | 71 W/m² | - |
| 1787862457 | 28.89° C | 53% | 1016.2 hPa | 0 mm | - | 69 W/m² | - |
| 1787862152 | 28.89° C | 53% | 1016.1 hPa | 0 mm | - | 62 W/m² | - |
| 1787861847 | 28.89° C | 55% | 1016.2 hPa | 0 mm | - | 64 W/m² | - |
| 1787861546 | 28.89° C | 52% | 1016.2 hPa | 0 mm | - | 68 W/m² | - |
* Rain latest hour (hover to see other rain measurements)
** Current wind speed in m/s (hover to see current wind gust speed)